Location: Ackerson Creek
(37.8210°N, 119.8757°W)
Time: 15:17:29
(UTC+00:00)

Cosmos 2278 Rocket - Pass Details

Date: 13 April 2024
Orbit: 839 x 846 km, 71.0° (Epoch: 22 May)

Event Time Altitude Azimuth Distance (km) Brightness Sun altitude
Rises 12:24:26 0° 325° (NW) 3,413 5.2 -12.5°
Reaches altitude 10° 12:27:13 10° 313° (NW) 2,473 4.4 -12.0°
Maximum altitude 12:31:52 27° 258° (WSW) 1,580 3.1 -11.1°
Drops below altitude 10° 12:36:30 10° 202° (SSW) 2,457 4.2 -10.3°
Sets 12:39:17 0° 191° (S) 3,387 5.0 -9.7°
